Regional Weather Roundup
Issued by NWS

Home | Current Version | Previous Version | Graphics & Text | Print | Product List | Glossary On
Versions: 1 2 3 4 5 6 7 8 9 10 11 12 13 14 15 16 17 18 19 20 21 22 23 24 25 26 27 28 29 30 31 32 33 34 35 36 37 38 39 40 41 42 43 44 45 46 47 48 49 50
000
ASUS43 KTOP 290059
RWRKS

WEATHER ROUNDUP FOR KANSAS
NATIONAL WEATHER SERVICE GOODLAND KS
800 PM CDT SUN MAY 28 2017

NOTE:  "FAIR" INDICATES FEW OR NO CLOUDS BELOW 12,000 FEET WITH NO
SIGNIFICANT WEATHER AND/OR OBSTRUCTIONS TO VISIBILITY.

KSZ001>006-013>018-027>032-041>047-290200-
NORTHWEST KANSAS

CITY           SKY/WX    TMP DP  RH WIND       PRES   REMARKS
GOODLAND       SUNNY     72  43  35 NW7       30.09F
HAYS           CLEAR     74  53  48 W7        30.01S
HILL CITY      PTCLDY    75  51  43 NE5       30.03R
RUSSELL        CLEAR     75  52  44 W7        29.98F
$$

KSZ061>065-074>080-084>089-290200-
SOUTHWEST KANSAS

CITY           SKY/WX    TMP DP  RH WIND       PRES   REMARKS
DODGE CITY     CLEAR     75  39  27 N7        30.06S
ELKHART          N/A     73  38  28 MISG        N/A
GARDEN CITY    CLEAR     75  38  26 NW6       30.07F
GREAT BEND     CLEAR     74  52  46 W3        30.02S
LIBERAL        CLEAR     74  46  36 N5        30.10S
$$

KSZ066>073-081>083-090>101-290200-
SOUTHEAST KANSAS

CITY           SKY/WX    TMP DP  RH WIND       PRES   REMARKS
CHANUTE        CLEAR     78  47  33 NW8       29.94F
COFFEYVILLE    CLEAR     78  53  41 N6        29.94F
HUTCHINSON     CLEAR     75  50  41 N3        29.99S
MEDICINE LODGE   N/A     78  45  30 N6        30.00S
NEWTON         CLEAR     75  47  36 NW5       29.99S
PARSONS        CLEAR     75  51  43 N5        29.95F
WICHITA INTL   CLEAR     78  42  27 NW9       29.98S
WICHITA JABRA  CLEAR     75  47  36 NW7       29.98S
WINFIELD       CLEAR     77  46  33 NW7       29.98S
$$

KSZ007>012-019>026-033>040-048>060-102>105-290200-
NORTHEAST KANSAS

CITY           SKY/WX    TMP DP  RH WIND       PRES   REMARKS
CONCORDIA      CLEAR     72  51  47 NW8       29.97R
EMPORIA        CLEAR     74  51  44 W5        29.95F
LAWRENCE       CLEAR     75  52  44 SW6       29.91F
MANHATTAN      CLEAR     74  54  49 W6        29.93S
OLATHE IND     CLEAR     75  50  41 W6        29.92F
OLATHE EXE     CLEAR     75  49  39 W3        29.92F
SALINA         CLEAR     79  50  36 W7        29.97S
TOPEKA BILLARD CLEAR     78  50  37 W8        29.91F
TOPEKA FORBES  CLEAR     75  53  46 W7        29.92F
$$




USA.gov is the U.S. government's official web portal to all federal, state and local government web resources and services.